GRBBETA

Last updated on Wed Sep 17 2025 00:03:49 GMT+0000 (Coordinated Universal Time)

1 60237U 24128C 25258.99885995 .00004649 00000+0 34314-3 0 9999 2 60237 61.9902 96.2014 0056770 78.8030 281.9435 15.03471272 64992
UTC large
Height (km)
Speed (km/s)
/
Latitude / Longitude
Inclination (degrees)
Orbital Period (minutes)
Azimuth
Elevation
Range (km)
Doppler Factor

Next 0 passes for location: London (51.5072 / 0.1276)

Sorry there are no passes over London.